Overview Statistics Trail Chart Weather Telemetry Raw packets
 

This is the latest recevied weather packets stored in our database for station/object KB0VMZ. If no packets are shown the sender has not sent any weather packets the latest 10 day(s).

<< 52 53 54 55 56 57 >>
Time Temp. Humidity Pressure Rain* Wind** Luminosity Snow
1787788854 25° C 100% 0 hPa 0 mm 0.45 m/s, 112° - -
1787788254 25° C 100% 0 hPa 0 mm 0.45 m/s, 90° - -
1787787654 25° C 100% 0 hPa 0 mm 1.34 m/s, 90° - -
1787787054 25° C 100% 0 hPa 0 mm 1.34 m/s, 90° - -
1787786454 25° C 100% 0 hPa 0 mm 0.89 m/s, 90° - -
1787785854 25° C 100% 0 hPa 0 mm 0.45 m/s, 45° - -
1787785254 25° C 100% 0 hPa 0 mm 0.45 m/s, 90° - -
1787784655 25.56° C 100% 0 hPa 0 mm 1.79 m/s, 45° - -
1787784053 25.56° C 100% 0 hPa 0 mm 1.34 m/s, 22° - -
1787783454 25.56° C 100% 0 hPa 0 mm 0.45 m/s, 45° - -
1787782854 25.56° C 100% 0 hPa 0 mm 2.24 m/s, 90° - -
1787782254 26.11° C 100% 0 hPa 0 mm 0.45 m/s, 315° - -
1787781654 26.11° C 100% 0 hPa 0 mm 0.89 m/s, 90° - -
1787781054 26.67° C 100% 0 hPa 0 mm 0.45 m/s, 45° - -
1787780454 26.67° C 100% 0 hPa 0 mm 0.45 m/s, 90° - -
1787779853 27.22° C 100% 0 hPa 0 mm 0.45 m/s, 90° - -
1787779254 27.78° C 100% 0 hPa 0 mm 0.89 m/s, 315° - -
1787778654 28.33° C 100% 0 hPa 0 mm 1.79 m/s, 90° - -
1787778054 30° C 100% 0 hPa 0 mm 0.45 m/s, 135° - -
1787777454 32.22° C 100% 0 hPa 0 mm 2.24 m/s, 45° - -
1787776854 31.67° C 100% 0 hPa 0 mm 1.34 m/s, 90° - -
1787776254 32.78° C 100% 0 hPa 0 mm 1.79 m/s, 0° - -
1787775654 32.78° C 100% 0 hPa 0 mm 1.79 m/s, 45° - -
1787775054 33.89° C 100% 0 hPa 0 mm 0.89 m/s, 270° - -
1787774454 33.89° C 100% 0 hPa 0 mm 0.45 m/s, 135° - -

* Rain latest hour (hover to see other rain measurements)
** Current wind speed in m/s (hover to see current wind gust speed)